Date,TemperatureHighF,TemperatureAvgF,TemperatureLowF,DewpointHighF,DewpointAvgF,DewpointLowF,HumidityHigh,HumidityAvg,HumidityLow,PressureMaxIn,PressureMinIn,WindSpeedMaxMPH,WindSpeedAvgMPH,GustSpeedMaxMPH,PrecipitationSumIn
2012-1-29,31,31,30,23,22,22,76,71,68,30.04,30.02,1,0,2,0.00
2012-1-30,36,33,29,27,22,13,80,65,40,30.14,29.93,9,2,15,0.00
2012-3-6,26,25,24,19,18,16,78,74,70,30.59,30.58,0,0,1,0.00
2012-3-7,56,37,25,33,28,19,87,72,42,30.58,30.33,5,1,10,0.00
2012-6-20,78,77,75,74,74,72,90,88,87,29.88,29.87,0,0,0,0.00
2012-6-21,94,79,68,76,71,66,94,78,46,29.88,29.73,2,0,0,0.00
2012-6-22,93,76,67,76,70,65,94,82,47,29.77,29.69,1,0,0,0.00
2012-6-23,86,70,59,73,65,57,95,86,53,29.93,29.75,2,0,0,0.00
2012-6-24,83,67,55,66,58,52,95,76,37,29.96,29.87,1,0,0,0.00
2012-6-25,69,66,60,67,62,58,95,90,82,29.87,29.63,2,0,0,0.00
2012-6-26,72,62,56,60,57,54,93,83,61,29.65,29.55,2,0,0,0.00
2012-6-27,78,64,56,62,57,52,91,79,53,29.74,29.58,3,0,0,0.00
2012-6-28,85,69,55,64,58,52,94,72,37,29.76,29.69,2,0,0,0.00
2012-6-29,87,72,61,78,67,58,94,84,60,29.72,29.54,1,0,0,0.00
2012-6-30,90,75,59,69,64,56,90,69,34,29.72,29.65,2,0,0,0.00
2012-7-1,89,72,63,74,67,61,94,85,53,29.83,29.72,1,0,0,0.00
2012-7-2,80,70,62,72,64,60,95,85,54,29.88,29.81,2,0,0,0.00
2012-7-3,85,70,59,66,61,55,94,75,37,29.92,29.84,2,0,0,0.00
2012-7-4,86,74,66,75,69,62,95,86,64,29.84,29.67,1,0,0,0.00
2012-7-5,84,75,66,71,66,63,94,77,52,29.85,29.65,2,0,0,0.00
2012-7-6,87,72,59,72,65,57,94,80,52,29.91,29.82,1,0,0,0.00
2012-7-7,83,74,67,74,69,64,93,85,73,29.83,29.71,1,0,0,0.00
2012-7-8,89,73,61,69,64,59,94,76,46,29.86,29.76,1,0,0,0.00
2012-7-9,84,68,57,63,57,51,91,70,34,29.96,29.86,1,0,0,0.00
2012-7-10,85,67,55,62,56,49,92,70,30,30.08,29.96,0,0,0,0.00
2012-7-11,85,70,58,69,61,55,93,77,42,30.19,30.08,1,0,0,0.00
2012-7-12,88,71,59,70,63,56,93,77,49,30.19,30.09,0,0,0,0.00
2012-7-13,68,67,66,61,60,59,80,79,77,30.16,30.16,0,0,0,0.00
2012-7-28,65,64,64,63,62,62,93,93,93,29.93,29.92,0,0,0,0.00
2012-8-2,71,71,71,68,68,68,91,91,91,29.89,29.89,0,0,0,0.00
2012-8-3,90,79,68,77,72,66,95,81,58,30.08,29.90,1,0,0,0.00
2012-8-4,75,72,70,72,70,68,94,93,90,30.19,30.09,0,0,0,0.00
2012-10-28,52,51,51,49,48,48,91,90,90,29.84,29.81,4,-536,0,0.00
2012-10-29,59,56,51,57,54,49,93,92,92,29.70,29.10,11,5,27,0.00